Regional Weather Roundup
Issued by NWS Upton, NY

Current Version | Previous Version | Text Only | Print | Product List | Glossary On
Versions: 1 2 3 4 5 6 7 8 9 10 11 12 13 14 15 16 17 18 19 20 21 22 23 24 25 26 27 28 29 30 31 32 33 34 35 36 37 38 39 40 41 42 43 44 45 46 47 48 49 50
000
ASUS41 KOKX 281708
RWROKX

REGIONAL WEATHER ROUNDUP
NATIONAL WEATHER SERVICE NEW YORK NY
100 PM EDT SAT MAR 28 2015

NOTE: "FAIR" INDICATES FEW OR NO CLOUDS BELOW 12,000 FEET WITH NO
SIGNIFICANT WEATHER AND/OR OBSTRUCTIONS TO VISIBILITY.

NYZ071-072-176-178-NJZ106-104-281800-
NEW YORK CITY METRO AREA


CITY           SKY/WX    TMP DP  RH WIND       PRES   REMARKS
CENTRAL PARK   CLOUDY    34  22  61 VRB7      29.86R WCI  28
LAGUARDIA APRT LGT SNOW  33  24  69 NW15      29.84S WCI  23
KENNEDY INTL   FLURRIES  35  24  64 NW20G26   29.84R WCI  24
NEWARK/LIBERTY PTSUNNY   42  20  41 NW12G23   29.84S
BRNX BOT. GARD   N/A    N/A N/A N/A N10       29.85S
TETERBORO      FLURRIES  36  21  54 N13       29.84S WCI  27
$$

NYZ177-179-078>081-281800-
LONG ISLAND NEW YORK

CITY           SKY/WX    TMP DP  RH WIND       PRES   REMARKS
FARMINGDALE    LGT SNOW  33  26  75 N18G25    29.81S WCI  22
ISLIP          LGT SNOW  33  28  81 NW22      29.77S WCI  21
SHIRLEY        LGT SNOW  33  30  88 NW15      29.79S FOG     WCI  23
WESTHAMPTON    LGT SNOW  33  30  88 NW16      29.77S VSB 1   WCI  23
MONTAUK POINT    N/A     36  34  92 N8        29.74F WCI  30
$$

NYZ052-065-067-281800-
HUDSON VALLEY

CITY           SKY/WX    TMP DP  RH WIND       PRES   REMARKS
WHITE PLAINS   LGT SNOW  31  23  72 NW22G31   29.81R WCI  18
NEWBURGH       LGT SNOW  32  28  86 NE12      29.85S WCI  23
MONTGOMERY     LGT SNOW  33  26  75 NE9       29.84S WCI  25
POUGHKEEPSIE   LGT SNOW  31  24  75 N12G20    29.87S WCI  22
ALBANY         LGT SNOW  26  21  81 NW12      29.93F VSB 3/4 WCI  16
$$

NJZ001-105-106-008-010-013-015-019>022-104-281800-
NEW JERSEY

CITY           SKY/WX    TMP DP  RH WIND       PRES   REMARKS
NEWARK/LIBERTY PTSUNNY   42  20  41 NW12G23   29.84S
TETERBORO      FLURRIES  36  21  54 N13       29.84S WCI  27
CALDWELL       PTSUNNY   38  17  42 NW13G21   29.85R WCI  30
MORRISTOWN     PTSUNNY   39  19  45 N20       29.86R WCI  30
SOMERVILLE     MOSUNNY   40  17  39 NW12G23   29.84S WCI  33
SUSSEX         CLOUDY    35  17  47 N14G22    29.86S WCI  26
ANDOVER          N/A     34  15  46 NW13G23   29.86S WCI  25
TRENTON        CLOUDY    39  17  41 NW14G23   29.85S WCI  31
MILLVILLE      CLOUDY    38  24  57 W12       29.88S WCI  30
ATLANTIC CITY  MOSUNNY   44  20  38 NW16G23   29.84F
WRIGHTSTOWN    SUNNY     41  20  43 NW16      29.83S
TOMS RIVER     SUNNY     41  18  38 N15       29.83F
BELMAR         PTSUNNY   43  19  39 NW15G23   29.82R
$$

PAZ047>061-062-071-281800-
EASTERN PENNSYLVANIA

CITY           SKY/WX    TMP DP  RH WIND       PRES   REMARKS
PHILADELPHIA   PTSUNNY   39  17  41 N15G25    29.90S WCI  31
ALLENTOWN      CLOUDY    35  15  44 N14G25    29.90S WCI  26
SCRANTON       CLOUDY    28  11  48 N10G25    29.92S WCI  19
$$

CTZ002-004>006-009-010-012-RIZ004-006-007-MAZ004-011-015-281800-
SOUTHERN NEW ENGLAND
 IN CT

CITY           SKY/WX    TMP DP  RH WIND       PRES   REMARKS
BRADLEY INTL   LGT SNOW  35  30  82 N12       29.78S WCI  27
HARTFORD       LGT SNOW  34  30  85 N10       29.79S FOG     WCI  26
DANBURY        LGT SNOW  29  22  75 N12G23    29.82S VSB 3/4 WCI  19
WTRBRY/OXFORD  CLOUDY    30  21  69 NW9G20    29.79S WCI  22
BRIDGEPORT     LGT SNOW  33  28  81 NW18G25   29.79S WCI  22
MERIDEN        LGT SNOW  34  29  82 N10       29.79R WCI  26
NEW HAVEN      LGT SNOW  34  30  85 NW14G22   29.78S FOG     WCI  25
CHESTER        MIX PCPN  34  32  93 N15G22    29.75S WCI  24
GROTON         LGT RAIN  38  35  89 N15       29.74S WCI  29
WILLIMANTIC    LGT SNOW  35  31  85 N10       29.76S FOG     WCI  27

 IN RI

CITY           SKY/WX    TMP DP  RH WIND       PRES   REMARKS
PROVIDENCE     LGT SNOW  35  32  88 NE16G25   29.74S FOG     WCI  25
BLOCK ISLAND   CLOUDY    36  32  87 N9        29.71F WCI  29
WESTERLY       LGT RAIN  37  34  89 N13       29.74S WCI  29

 IN MA

CITY           SKY/WX    TMP DP  RH WIND       PRES   REMARKS
BOSTON         LGT SNOW  33  31  92 N12       29.76S VSB 1   WCI  24
WORCESTER      LGT SNOW  32  27  81 N12G23    29.72R WCI  23
WESTFIELD      FLURRIES  35  30  82 NE9       29.78F WCI  28
PROVINCETOWN   CLOUDY    34  30  86 N17G26    29.73R WCI  23
NANTUCKET      LGT RAIN  38  34  85 N18G29    29.64S FOG     WCI  28
$$

ANZ330-335-338-340-345-350-353-355-281800-
COASTAL MARINE OBSERVATIONS


STATION/POSITION TIME  SKY/WX   TEMP    WIND        PRES    VSBY  WAVE
                                AIR SEA DIR/SP/G                  HT/PER
                 (UTC)          (F)     (DEG/KT/KT) (MB)    (MI)  (FT/S)
NY HARB ENTRANCE 1650            35 38  330/ 19/ 23 1009.4          4/11
4S FIRE IS       1603               36                N/A           4/12
20S FIRE ISLAND  1550               38              1009.0          6/ 5
23SW MTP         1650                                 N/A           6/11
HUDSON CANYON    NOT AVBL
EXECUTION ROCKS  NOT AVBL
WESTERN LI SOUND NOT AVBL
CENTRAL LI SOUND NOT AVBL
EASTERN LI SOUND NOT AVBL
ROBBINS REEF     1600            35     360/ 18/ 21 1009.1
$$


>>>>>>>>>>>>>>>>>>>>>>>>>>>> KEY <<<<<<<<<<<<<<<<<<<<<<<<<<<
>                                                          <
>     SKY/WX - SKY CONDITION/PRESENT WEATHER               <
>     TMP    - TEMPERATURE IN FAHRENHEIT                   <
>     DP     - DEWPOINT IN FAHRENHEIT                      <
>     RH     - RELATIVE HUMIDITY IN PERCENT                <
>     WIND   - DIRECTION AND SPEED IN MPH                  <
>     PRES   - MEAN SEA LEVEL PRESSURE IN INCHES OF HG     <
>     WCI    - WIND CHILL INDEX                            <
>     VSB    - VISIBILITY IN MILES                         <
>     HX     - HEAT INDEX                                  <
>     TC     - TEMPERATURE IN CELSIUS                      <
>     VRB    - VARIABLE WIND DIRECTION                     <
>                                                          <
>>>>>>>>>>>>>>>>>>>>>>>>>>>> KEY <<<<<<<<<<<<<<<<<<<<<<<<<<<




USA.gov is the U.S. government's official web portal to all federal, state and local government web resources and services.